IU2EVW-3 Weather Reports


Display with metric or nautical units.
time (UTC)temp
F
wind
direction
speed
MPH
gust
MPH
rain 1hr
in
rain 24hr
in
rain mn
in
humidity
%
barometer
mb
20260507194159 63 0.0 0.0 0.00 0.00 0.00 53 1013.8
20260507192158 64 0.0 0.0 0.00 0.00 0.00 52 1013.5
20260507190157 64 0.0 0.0 0.00 0.00 0.00 50 1013.2
20260507184156 65 0.0 0.0 0.00 0.00 0.00 48 1013.0
20260507182154 66 0.0 0.0 0.00 0.00 0.00 46 1012.8
20260507180153 69 0.0 0.0 0.00 0.00 0.00 44 1012.5
20260507174152 72 0.0 0.0 0.00 0.00 0.00 42 1012.3
20260507172151 72 0.0 0.0 0.00 0.00 0.00 40 1012.1
20260507170149 71 0.0 0.0 0.00 0.00 0.00 39 1012.2
20260507164148 72 0.0 0.0 0.00 0.00 0.00 38 1012.1
20260507162147 69 0.0 0.0 0.00 0.00 0.00 43 1012.1
20260507160146 68 0.0 0.0 0.00 0.00 0.00 46 1012.1
20260507154145 69 0.0 0.0 0.00 0.00 0.00 44 1012.1
20260507152144 70 0.0 0.0 0.00 0.00 0.00 44 1012.2
20260507150143 70 0.0 0.0 0.00 0.00 0.00 44 1012.2
20260507144141 70 0.0 0.0 0.00 0.00 0.00 45 1012.3
20260507142140 70 0.0 0.0 0.00 0.00 0.00 45 1012.3
20260507140139 69 0.0 0.0 0.00 0.00 0.00 41 1012.6
20260507134138 68 0.0 0.0 0.00 0.00 0.00 47 1012.6
20260507132137 68 0.0 0.0 0.00 0.00 0.00 48 1012.9
20260507130136 68 0.0 0.0 0.00 0.00 0.00 48 1012.9
20260507124134 67 0.0 0.0 0.00 0.00 0.00 50 1013.2
20260507122133 67 0.0 0.0 0.00 0.00 0.00 50 1013.3
20260507120132 66 0.0 0.0 0.00 0.00 0.00 51 1013.4
20260507114131 66 0.0 0.0 0.00 0.00 0.00 51 1013.7
20260507112129 64 0.0 0.0 0.00 0.00 0.00 55 1013.9
20260507110128 68 0.0 0.0 0.00 0.00 0.00 47 1013.7
20260507104127 66 0.0 0.0 0.00 0.00 0.00 50 1014.1
20260507102126 65 0.0 0.0 0.00 0.00 0.00 51 1014.3
20260507100125 64 0.0 0.0 0.00 0.00 0.00 53 1014.4
20260507094123 63 0.0 0.0 0.00 0.00 0.00 57 1014.5
20260507092122 61 0.0 0.0 0.00 0.00 0.00 58 1014.5
20260507090121 61 0.0 0.0 0.00 0.00 0.00 58 1014.4
20260507084120 60 0.0 0.0 0.00 0.00 0.00 64 1014.5
20260507082119 58 0.0 0.0 0.00 0.00 0.00 67 1014.6
20260507080117 58 0.0 0.0 0.00 0.00 0.00 71 1014.5
20260507074116 57 0.0 0.0 0.00 0.00 0.00 73 1014.3
20260507072115 55 0.0 0.0 0.00 0.00 0.00 75 1014.4
20260507070114 57 0.0 0.0 0.00 0.00 0.00 74 1014.2
20260507064113 57 0.0 0.0 0.00 0.00 0.00 72 1014.0
20260507062111 58 0.0 0.0 0.00 0.00 0.00 69 1013.9
20260507060110 55 0.0 0.0 0.00 0.00 0.00 77 1013.8
20260507054109 54 0.0 0.0 0.00 0.00 0.00 78 1013.6
20260507052108 54 0.0 0.0 0.00 0.00 0.00 79 1013.4
20260507050107 53 0.0 0.0 0.00 0.00 0.00 78 1013.1
20260507044106 53 0.0 0.0 0.00 0.00 0.00 79 1013.0
20260507042104 52 0.0 0.0 0.00 0.00 0.00 78 1012.8
20260507034102 52 0.0 0.0 0.00 0.00 0.00 77 1012.6
20260507032101 52 0.0 0.0 0.00 0.00 0.00 76 1012.6
20260507030059 52 0.0 0.0 0.00 0.00 0.00 76 1012.5
20260507024058 52 0.0 0.0 0.00 0.00 0.00 78 1012.5
20260507022057 53 0.0 0.0 0.00 0.00 0.00 77 1012.4
20260507020056 53 0.0 0.0 0.00 0.00 0.00 75 1012.4
20260507014055 54 0.0 0.0 0.00 0.00 0.00 77 1012.2
20260507012053 54 0.0 0.0 0.00 0.00 0.00 76 1012.3
20260507010052 54 0.0 0.0 0.00 0.00 0.00 75 1012.4
20260507004051 55 0.0 0.0 0.00 0.00 0.00 72 1012.6
20260507002050 54 0.0 0.0 0.00 0.00 0.00 69 1012.3
20260507000049 55 0.0 0.0 0.00 0.00 0.00 69 1012.3
20260506234047 54 0.0 0.0 0.00 0.00 0.00 69 1012.3
20260506232046 54 0.0 0.0 0.00 0.00 0.00 70 1012.1
20260506230045 54 0.0 0.0 0.00 0.00 0.00 70 1011.8
20260506224044 54 0.0 0.0 0.00 0.00 0.00 69 1011.8
20260506222043 54 0.0 0.0 0.00 0.00 0.00 69 1011.8
20260506220041 55 0.0 0.0 0.00 0.00 0.00 69 1011.7
20260506214040 55 0.0 0.0 0.00 0.00 0.00 69 1011.7
20260506212039 55 0.0 0.0 0.00 0.00 0.00 70 1011.6
20260506210038 55 0.0 0.0 0.00 0.00 0.00 70 1011.5
20260506204037 55 0.0 0.0 0.00 0.00 0.00 71 1011.4
20260506202035 55 0.0 0.0 0.00 0.00 0.00 67 1011.3
20260506200034 56 0.0 0.0 0.00 0.00 0.00 64 1011.1